Regional Weather Roundup
Issued by NWS

Home | Current Version | Previous Version | Text Only | Print | Product List | Glossary Off
Versions: 1 2 3 4 5 6 7 8 9 10 11 12 13 14 15 16 17 18 19 20 21 22 23 24 25 26 27 28 29

000
ASUS43 KDMX 301007
RWRIA

WEATHER ROUNDUP FOR IOWA
NATIONAL WEATHER SERVICE DES MOINES IA
500 AM CDT THU OCT 30 2014

NOTE: "FAIR" INDICATES FEW OR NO CLOUDS BELOW 12,000 FEET WITH NO
SIGNIFICANT WEATHER AND/OR OBSTRUCTIONS TO VISIBILITY.

* - THESE STATIONS ARE NOT NWS STATIONS...THUS NOT UNDER NWS
QUALITY CONTROL.  THEY ALSO DO NOT REPORT WEATHER SUCH
AS PRECIPITATION OR FOG.

IAZ001>003-012>014-020>022-031>034-043>046-301100-
   NORTHWEST IOWA

CITY           SKY/WX    TMP DP  RH WIND       PRES   REMARKS
CARROLL *      CLOUDY    43  37  81 SE9G16    30.00F
CHEROKEE *     MOCLDY    43  36  75 S5        29.99R
DENISON *      PTCLDY    43  34  70 E6        29.98S
LE MARS *      PTCLDY    41  34  75 CALM      30.00R
ORANGE CITY *  CLEAR     41  32  70 SW5       29.98S
SHELDON *      MOCLDY    43  34  70 S6        29.97S
SIOUX CITY     PTCLDY    36  31  82 CALM      30.00R
SPENCER        CLOUDY    43  35  73 SE7       29.98F
STORM LAKE *   MOCLDY    43  34  70 S9        29.99S
$$

IAZ055>058-069>071-079>083-090>094-301100-
   SOUTHWEST IOWA

CITY           SKY/WX    TMP DP  RH WIND       PRES   REMARKS
ATLANTIC *     CLOUDY    45  34  65 S3        29.99F
AUDUBON *      PTCLDY    41  34  75 E3        30.01F
CLARINDA *     CLOUDY    46  37  71 SW6       30.03S
COUNCIL BLFS * CLEAR     43  36  75 SE10      29.96F
CRESTON *      MOCLDY    43  36  75 SE5       30.01F
HARLAN  *      CLOUDY    45  36  70 SE3       30.03S
LAMONI         CLOUDY    44  34  67 SE10      30.02F
RED OAK *      CLOUDY    45  36  70 CALM      29.99F
SHENANDOAH *     N/A     46  37  71 E7        29.96F
$$

IAZ047>049-059>061-072>074-084-301100-
   CENTRAL IOWA

CITY           SKY/WX    TMP DP  RH WIND       PRES   REMARKS
AMES           CLOUDY    39  36  89 CALM      30.06S
ANKENY *       CLOUDY    41  36  81 CALM      30.06S
CHARITON *     CLOUDY    39  36  87 SE6       30.04F WCI  35
DES MOINES     CLOUDY    44  34  67 E6        30.04F
GRINNELL*      CLOUDY    39  34  81 SE7       30.07F WCI  34
KNOXVILLE *    CLOUDY    41  34  75 SE7       30.04F
MARSHALLTOWN   CLOUDY    35  33  92 SE5       30.07S WCI  31
PELLA *        CLOUDY    39  36  87 SE5       30.08F
PERRY *        DRIZZLE   41  37  87 N6        30.05R
$$

IAZ004>006-015-016-023>025-035-036-301100-
   NORTH CENTRAL IOWA

CITY           SKY/WX    TMP DP  RH WIND       PRES   REMARKS
ALGONA *       CLOUDY    41  36  81 SE5       30.00F
CLARION *      CLOUDY    43  37  81 S9        30.02S
ESTHERVILLE    CLOUDY    41  33  73 SE7       29.98F
FORT DODGE *   CLOUDY    43  34  70 SE5       30.01F
MASON CITY     MOCLDY    34  32  92 S6        30.04F WCI  29
FOREST CITY *  PTCLDY    36  36 100 SE5       30.02F WCI  32
IOWA FALLS *   DRIZZLE   39  36  87 SE5       30.05F
$$

IAZ007>011-017>019-026>030-037>042-050>054-066-301100-
   NORTHEAST IOWA

CITY           SKY/WX    TMP DP  RH WIND       PRES   REMARKS
CEDAR RAPIDS   MOCLDY    34  33  96 S5        30.09S WCI  30
CHARLES CITY * CLOUDY    37  34  87 SE7       30.06F WCI  32
CLINTON *      MOCLDY    28  25  86 E3        30.13F
DECORAH *      CLOUDY    36  32  87 S5        30.06S WCI  32
DUBUQUE        MOCLDY    34  30  85 CALM      30.10S
MONTICELLO *   CLEAR     30  30 100 CALM      30.10S
OELWEIN *      CLOUDY    36  34  93 SE6       30.08F WCI  31
WATERLOO       CLOUDY    37  33  85 VRB5      30.07F WCI  33
$$

IAZ064-065-067-068-078-301100-
   EAST CENTRAL IOWA

CITY           SKY/WX    TMP DP  RH WIND       PRES   REMARKS
DAVENPORT      MOCLDY    33  29  85 CALM      30.12S
IOWA CITY      MOCLDY    34  33  96 CALM      30.12S
MT. PLEASANT * MOCLDY    34  34 100 CALM      30.12S
MUSCATINE *    CLEAR     34  30  86 CALM      30.13R
QUAD CITIES    MOCLDY    32  29  88 CALM      30.12S
$$

IAZ062-063-075>077-085>089-095>099-301100-
   SOUTHEAST IOWA

CITY           SKY/WX    TMP DP  RH WIND       PRES   REMARKS
BURLINGTON     PTCLDY    36  34  92 CALM      30.12S
FAIRFIELD *    CLOUDY    39  34  81 SE7       30.10S WCI  34
FORT MADISON * PTCLDY    39  36  87 S5        30.12S
KEOKUK *       CLOUDY    39  36  87 SE6       30.11R WCI  35
OSKALOOSA *      N/A     37  34  87 SE7       30.08F WCI  32
CENTERVILLE *  CLEAR     37  36  93 E5        30.07F WCI  34
OTTUMWA        CLOUDY    40  34  79 SE7       30.08F
WASHINGTON *   MOCLDY    36  36 100 S5        30.11S WCI  32
$$

ABBREVIATIONS USED IN REMARKS
   TC - TEMPERATURES IN CELSIUS
  WCI - WIND CHILL INDEX
   HX - HEAT INDEX
  VSB - VISIBILITY
$$




USA.gov is the U.S. government's official web portal to all federal, state and local government web resources and services.